| time (UTC) | temp F | wind direction | speed MPH | gust MPH | rain 1hr in | rain 24hr in | rain mn in | humidity % | barometer mb |
| 20260505075237 | 35 | 273 | 0.0 | 0.0 | 0.00 | 0.00 | 0.00 | 90 | 1008.0 |
| 20260505074738 | 35 | 272 | 0.0 | 0.0 | 0.00 | 0.00 | 0.00 | 91 | 1008.0 |
| 20260505074237 | 35 | 274 | 0.0 | 0.0 | 0.00 | 0.00 | 0.00 | 92 | 1008.0 |
| 20260505073739 | 35 | 275 | 0.0 | 0.0 | 0.00 | 0.00 | 0.00 | 94 | 1008.0 |
| 20260505073238 | 35 | 271 | 0.0 | 0.0 | 0.00 | 0.00 | 0.00 | 94 | 1008.0 |
| 20260505072737 | 35 | 271 | 0.0 | 0.0 | 0.00 | 0.00 | 0.00 | 93 | 1008.0 |
| 20260505072237 | 35 | 271 | 0.0 | 0.0 | 0.00 | 0.00 | 0.00 | 93 | 1008.0 |
| 20260505071737 | 35 | 271 | 0.0 | 0.0 | 0.00 | 0.00 | 0.00 | 91 | 1008.0 |
| 20260505071237 | 35 | 271 | 0.0 | 0.0 | 0.00 | 0.00 | 0.00 | 91 | 1008.0 |
| 20260505070738 | 35 | 274 | 0.0 | 0.0 | 0.00 | 0.00 | 0.00 | 93 | 1008.0 |
| 20260505070237 | 35 | 274 | 0.0 | 0.0 | 0.00 | 0.00 | 0.00 | 92 | 1008.0 |
| 20260505065738 | 35 | 274 | 0.0 | 0.0 | 0.00 | 0.00 | 0.00 | 95 | 1008.0 |
| 20260505065237 | 36 | 272 | 0.0 | 0.0 | 0.00 | 0.00 | 0.00 | 97 | 1008.0 |
| 20260505064737 | 36 | 272 | 0.0 | 0.0 | 0.00 | 0.00 | 0.00 | 94 | 1008.0 |
| 20260505064238 | 36 | 273 | 0.0 | 0.0 | 0.00 | 0.00 | 0.00 | 93 | 1008.0 |
| 20260505063738 | 36 | 272 | 0.0 | 0.0 | 0.00 | 0.00 | 0.00 | 92 | 1008.0 |
| 20260505063237 | 36 | 274 | 0.0 | 0.0 | 0.00 | 0.00 | 0.00 | 98 | 1008.0 |
| 20260505062739 | 37 | 268 | 0.0 | 0.0 | 0.00 | 0.00 | 0.00 | 96 | 1008.0 |
| 20260505062238 | 37 | 274 | 0.0 | 0.0 | 0.00 | 0.00 | 0.00 | 92 | 1008.0 |
| 20260505061739 | 37 | 273 | 0.0 | 0.0 | 0.00 | 0.00 | 0.00 | 92 | 1008.0 |
| 20260505061238 | 37 | 273 | 0.0 | 0.0 | 0.00 | 0.00 | 0.00 | 90 | 1008.0 |
| 20260505060738 | 37 | 273 | 0.0 | 0.0 | 0.00 | 0.00 | 0.00 | 89 | 1008.0 |
| 20260505060238 | 37 | 273 | 0.0 | 0.0 | 0.00 | 0.00 | 0.00 | 92 | 1008.0 |
| 20260505055737 | 38 | 266 | 0.0 | 0.0 | 0.00 | 0.00 | 0.00 | 89 | 1008.0 |
| 20260505055238 | 38 | 272 | 0.0 | 0.0 | 0.00 | 0.00 | 0.00 | 89 | 1008.0 |
| 20260505054737 | 38 | 273 | 0.0 | 0.0 | 0.00 | 0.00 | 0.00 | 87 | 1008.0 |
| 20260505054238 | 38 | 273 | 0.0 | 0.0 | 0.00 | 0.00 | 0.00 | 88 | 1008.0 |
| 20260505053737 | 39 | 272 | 0.0 | 0.0 | 0.00 | 0.00 | 0.00 | 87 | 1008.0 |
| 20260505053237 | 39 | 274 | 0.0 | 0.0 | 0.00 | 0.00 | 0.00 | 85 | 1007.0 |
| 20260505052738 | 39 | 273 | 0.0 | 0.0 | 0.00 | 0.00 | 0.00 | 86 | 1007.0 |
| 20260505052237 | 40 | 269 | 0.0 | 0.0 | 0.00 | 0.00 | 0.00 | 84 | 1007.0 |
| 20260505051738 | 40 | 270 | 0.0 | 0.0 | 0.00 | 0.00 | 0.00 | 82 | 1007.0 |
| 20260505051238 | 40 | 274 | 0.0 | 0.0 | 0.00 | 0.00 | 0.00 | 82 | 1007.0 |
| 20260505050739 | 41 | 274 | 0.0 | 0.0 | 0.00 | 0.00 | 0.00 | 78 | 1007.0 |
| 20260505050237 | 41 | 275 | 0.0 | 0.0 | 0.00 | 0.00 | 0.00 | 76 | 1007.0 |
| 20260505041737 | 44 | 273 | 0.0 | 0.0 | 0.00 | 0.00 | 0.00 | 69 | 1007.0 |
| 20260505041238 | 45 | 272 | 0.0 | 0.0 | 0.00 | 0.00 | 0.00 | 69 | 1007.0 |
| 20260505040737 | 45 | 290 | 0.0 | 0.0 | 0.00 | 0.00 | 0.00 | 67 | 1006.0 |
| 20260505040238 | 46 | 270 | 0.0 | 0.0 | 0.00 | 0.00 | 0.00 | 65 | 1006.0 |
| 20260505035738 | 46 | 290 | 1.0 | 1.0 | 0.00 | 0.00 | 0.00 | 64 | 1006.0 |
| 20260505035237 | 47 | 289 | 0.0 | 0.0 | 0.00 | 0.00 | 0.00 | 64 | 1006.0 |
| 20260505034738 | 48 | 274 | 0.0 | 0.0 | 0.00 | 0.00 | 0.00 | 62 | 1006.0 |
| 20260505034237 | 48 | 276 | 0.0 | 0.0 | 0.00 | 0.00 | 0.00 | 62 | 1006.0 |
| 20260505033737 | 49 | 278 | 0.0 | 0.0 | 0.00 | 0.00 | 0.00 | 58 | 1006.0 |
| 20260505033237 | 50 | 270 | 0.0 | 0.0 | 0.00 | 0.00 | 0.00 | 60 | 1006.0 |
| 20260505032737 | 51 | 272 | 0.0 | 0.0 | 0.00 | 0.00 | 0.00 | 60 | 1006.0 |
| 20260505032238 | 52 | 272 | 0.0 | 0.0 | 0.00 | 0.00 | 0.00 | 54 | 1006.0 |
| 20260505031737 | 52 | 274 | 0.0 | 0.0 | 0.00 | 0.00 | 0.00 | 51 | 1006.0 |
| 20260505031238 | 53 | 274 | 0.0 | 0.0 | 0.00 | 0.00 | 0.00 | 50 | 1006.0 |
| 20260505030737 | 54 | 273 | 0.0 | 0.0 | 0.00 | 0.00 | 0.00 | 49 | 1006.0 |
| 20260505030237 | 55 | 275 | 0.0 | 0.0 | 0.00 | 0.00 | 0.00 | 49 | 1006.0 |
| 20260505025738 | 55 | 274 | 0.0 | 0.0 | 0.00 | 0.00 | 0.00 | 47 | 1006.0 |
| 20260505025238 | 56 | 273 | 0.0 | 0.0 | 0.00 | 0.00 | 0.00 | 46 | 1006.0 |
| 20260505024743 | 56 | 273 | 0.0 | 0.0 | 0.00 | 0.00 | 0.00 | 46 | 1006.0 |
| 20260505024237 | 57 | 275 | 0.0 | 0.0 | 0.00 | 0.00 | 0.00 | 44 | 1006.0 |
| 20260505023738 | 57 | 273 | 0.0 | 0.0 | 0.00 | 0.00 | 0.00 | 43 | 1006.0 |
| 20260505023237 | 58 | 271 | 0.0 | 0.0 | 0.00 | 0.00 | 0.00 | 45 | 1006.0 |
| 20260505022737 | 58 | 276 | 0.0 | 0.0 | 0.00 | 0.00 | 0.00 | 45 | 1006.0 |
| 20260505022237 | 59 | 280 | 1.0 | 1.0 | 0.00 | 0.00 | 0.00 | 42 | 1006.0 |
| 20260505021738 | 59 | 273 | 0.0 | 0.0 | 0.00 | 0.00 | 0.00 | 43 | 1006.0 |
| 20260505021238 | 60 | 278 | 0.0 | 0.0 | 0.00 | 0.00 | 0.00 | 41 | 1006.0 |
| 20260505020737 | 60 | 274 | 0.0 | 0.0 | 0.00 | 0.00 | 0.00 | 41 | 1006.0 |
| 20260505020237 | 61 | 270 | 1.0 | 1.0 | 0.00 | 0.00 | 0.00 | 40 | 1006.0 |
| 20260505015738 | 62 | 268 | 1.0 | 1.0 | 0.00 | 0.00 | 0.00 | 40 | 1006.0 |
| 20260505015238 | 62 | 275 | 0.0 | 0.0 | 0.00 | 0.00 | 0.00 | 37 | 1006.0 |
| 20260505014737 | 62 | 274 | 1.0 | 1.0 | 0.00 | 0.00 | 0.00 | 38 | 1006.0 |
| 20260505014237 | 63 | 287 | 0.0 | 0.0 | 0.00 | 0.00 | 0.00 | 38 | 1006.0 |
| 20260505013737 | 63 | 284 | 0.0 | 0.0 | 0.00 | 0.00 | 0.00 | 37 | 1006.0 |
| 20260505013237 | 64 | 277 | 0.0 | 1.0 | 0.00 | 0.00 | 0.00 | 36 | 1006.0 |
| 20260505012737 | 65 | 281 | 0.0 | 0.0 | 0.00 | 0.00 | 0.00 | 36 | 1006.0 |
| 20260505012237 | 65 | 264 | 0.0 | 0.0 | 0.00 | 0.00 | 0.00 | 38 | 1006.0 |
| 20260505011738 | 66 | 290 | 1.0 | 1.0 | 0.00 | 0.00 | 0.00 | 35 | 1006.0 |
| 20260505011239 | 66 | 296 | 2.0 | 3.0 | 0.00 | 0.00 | 0.00 | 34 | 1006.0 |
| 20260505010738 | 67 | 313 | 2.0 | 2.0 | 0.00 | 0.00 | 0.00 | 34 | 1006.0 |
| 20260505010238 | 68 | 296 | 0.0 | 1.0 | 0.00 | 0.00 | 0.00 | 34 | 1006.0 |
| 20260505005739 | 68 | 287 | 1.0 | 2.0 | 0.00 | 0.00 | 0.00 | 33 | 1006.0 |
| 20260505005238 | 69 | 285 | 0.0 | 0.0 | 0.00 | 0.00 | 0.00 | 33 | 1006.0 |
| 20260505004738 | 69 | 274 | 1.0 | 1.0 | 0.00 | 0.00 | 0.00 | 33 | 1006.0 |
| 20260505004237 | 70 | 273 | 0.0 | 0.0 | 0.00 | 0.00 | 0.00 | 33 | 1006.0 |
| 20260505003738 | 69 | 270 | 1.0 | 1.0 | 0.00 | 0.00 | 0.00 | 34 | 1006.0 |
| 20260505003237 | 69 | 298 | 1.0 | 1.0 | 0.00 | 0.00 | 0.00 | 35 | 1006.0 |
| 20260505002738 | 69 | 290 | 1.0 | 1.0 | 0.00 | 0.00 | 0.00 | 34 | 1006.0 |
| 20260505002237 | 68 | 60 | 4.0 | 6.0 | 0.00 | 0.00 | 0.00 | 33 | 1006.0 |
| 20260505001737 | 72 | 281 | 1.0 | 3.0 | 0.00 | 0.00 | 0.00 | 33 | 1006.0 |
| 20260505001237 | 72 | 275 | 1.0 | 1.0 | 0.00 | 0.00 | 0.00 | 32 | 1006.0 |
| 20260505000737 | 72 | 276 | 1.0 | 1.0 | 0.00 | 0.00 | 0.00 | 31 | 1006.0 |
| 20260505000237 | 72 | 290 | 1.0 | 1.0 | 0.00 | 0.00 | 0.00 | 31 | 1006.0 |
| 20260504235738 | 71 | 291 | 0.0 | 1.0 | 0.00 | 0.00 | 0.00 | 31 | 1006.0 |
| 20260504235237 | 72 | 293 | 1.0 | 1.0 | 0.00 | 0.00 | 0.00 | 32 | 1006.0 |
| 20260504234738 | 72 | 274 | 1.0 | 1.0 | 0.00 | 0.00 | 0.00 | 33 | 1006.0 |
| 20260504234237 | 71 | 333 | 1.0 | 2.0 | 0.00 | 0.00 | 0.00 | 32 | 1006.0 |
| 20260504233737 | 72 | 277 | 1.0 | 2.0 | 0.00 | 0.00 | 0.00 | 31 | 1006.0 |
| 20260504233237 | 71 | 274 | 1.0 | 1.0 | 0.00 | 0.00 | 0.00 | 33 | 1006.0 |
| 20260504232740 | 69 | 336 | 6.0 | 10.0 | 0.00 | 0.00 | 0.00 | 34 | 1006.0 |
| 20260504232237 | 70 | 341 | 4.0 | 6.0 | 0.00 | 0.00 | 0.00 | 31 | 1006.0 |
| 20260504231737 | 72 | 276 | 1.0 | 2.0 | 0.00 | 0.00 | 0.00 | 31 | 1006.0 |
| 20260504231237 | 72 | 311 | 2.0 | 2.0 | 0.00 | 0.00 | 0.00 | 30 | 1006.0 |
| 20260504230737 | 72 | 310 | 2.0 | 2.0 | 0.00 | 0.00 | 0.00 | 33 | 1006.0 |
| 20260504230237 | 71 | 282 | 1.0 | 3.0 | 0.00 | 0.00 | 0.00 | 32 | 1006.0 |
| 20260504225737 | 71 | 299 | 3.0 | 3.0 | 0.00 | 0.00 | 0.00 | 30 | 1006.0 |
| 20260504225237 | 70 | 274 | 0.0 | 1.0 | 0.00 | 0.00 | 0.00 | 33 | 1006.0 |
| 20260504224737 | 69 | 314 | 2.0 | 2.0 | 0.00 | 0.00 | 0.00 | 33 | 1006.0 |
| 20260504223806 | 67 | 311 | 1.0 | 1.0 | 0.00 | 0.00 | 0.00 | 37 | 1006.0 |
| 20260504223237 | 70 | 346 | 1.0 | 1.0 | 0.00 | 0.00 | 0.00 | 33 | 1007.0 |
| 20260504222737 | 71 | 325 | 2.0 | 3.0 | 0.00 | 0.00 | 0.00 | 31 | 1007.0 |
| 20260504222238 | 71 | 279 | 1.0 | 2.0 | 0.00 | 0.00 | 0.00 | 34 | 1007.0 |
| 20260504221738 | 69 | 280 | 0.0 | 0.0 | 0.00 | 0.00 | 0.00 | 36 | 1007.0 |
| 20260504221239 | 69 | 276 | 1.0 | 1.0 | 0.00 | 0.00 | 0.00 | 34 | 1007.0 |
| 20260504220737 | 69 | 278 | 1.0 | 1.0 | 0.00 | 0.00 | 0.00 | 36 | 1007.0 |
| 20260504220237 | 70 | 0 | 2.0 | 3.0 | 0.00 | 0.00 | 0.00 | 34 | 1007.0 |
| 20260504215737 | 70 | 257 | 2.0 | 2.0 | 0.00 | 0.00 | 0.00 | 31 | 1007.0 |
| 20260504215237 | 68 | 351 | 1.0 | 2.0 | 0.00 | 0.00 | 0.00 | 33 | 1007.0 |
| 20260504214738 | 69 | 286 | 1.0 | 1.0 | 0.00 | 0.00 | 0.00 | 35 | 1007.0 |
| 20260504214238 | 68 | 280 | 1.0 | 1.0 | 0.00 | 0.00 | 0.00 | 33 | 1007.0 |
| 20260504213737 | 68 | 277 | 0.0 | 1.0 | 0.00 | 0.00 | 0.00 | 35 | 1007.0 |
| 20260504213238 | 69 | 301 | 1.0 | 1.0 | 0.00 | 0.00 | 0.00 | 36 | 1007.0 |
| 20260504212737 | 72 | 290 | 1.0 | 2.0 | 0.00 | 0.00 | 0.00 | 35 | 1007.0 |
| 20260504212242 | 71 | 291 | 1.0 | 1.0 | 0.00 | 0.00 | 0.00 | 35 | 1007.0 |
| 20260504211738 | 71 | 300 | 0.0 | 1.0 | 0.00 | 0.00 | 0.00 | 35 | 1007.0 |
| 20260504211237 | 68 | 322 | 2.0 | 3.0 | 0.00 | 0.00 | 0.00 | 36 | 1007.0 |
| 20260504210739 | 66 | 283 | 2.0 | 2.0 | 0.00 | 0.00 | 0.00 | 37 | 1007.0 |
| 20260504210237 | 69 | 272 | 1.0 | 2.0 | 0.00 | 0.00 | 0.00 | 38 | 1007.0 |
| 20260504205737 | 72 | 282 | 2.0 | 3.0 | 0.00 | 0.00 | 0.00 | 31 | 1007.0 |
| 20260504205237 | 71 | 262 | 2.0 | 2.0 | 0.00 | 0.00 | 0.00 | 31 | 1007.0 |
| 20260504204738 | 70 | 251 | 1.0 | 1.0 | 0.00 | 0.00 | 0.00 | 35 | 1007.0 |
| 20260504204237 | 67 | 327 | 4.0 | 6.0 | 0.00 | 0.00 | 0.00 | 38 | 1007.0 |
| 20260504203738 | 68 | 307 | 1.0 | 1.0 | 0.00 | 0.00 | 0.00 | 36 | 1007.0 |
| 20260504203237 | 70 | 339 | 4.0 | 4.0 | 0.00 | 0.00 | 0.00 | 35 | 1007.0 |
| 20260504202738 | 70 | 351 | 2.0 | 3.0 | 0.00 | 0.00 | 0.00 | 35 | 1007.0 |
| 20260504202237 | 73 | 272 | 1.0 | 2.0 | 0.00 | 0.00 | 0.00 | 36 | 1007.0 |
| 20260504201738 | 71 | 314 | 2.0 | 3.0 | 0.00 | 0.00 | 0.00 | 34 | 1007.0 |
| 20260504201237 | 68 | 272 | 0.0 | 3.0 | 0.00 | 0.00 | 0.00 | 34 | 1007.0 |
| 20260504200737 | 69 | 189 | 2.0 | 2.0 | 0.00 | 0.00 | 0.00 | 33 | 1007.0 |
| 20260504200238 | 68 | 297 | 2.0 | 2.0 | 0.00 | 0.00 | 0.00 | 35 | 1007.0 |
| 20260504195738 | 68 | 244 | 2.0 | 3.0 | 0.00 | 0.00 | 0.00 | 36 | 1008.0 |
| 20260504195238 | 68 | 191 | 3.0 | 4.0 | 0.00 | 0.00 | 0.00 | 35 | 1008.0 |
| 20260504194739 | 69 | 182 | 6.0 | 6.0 | 0.00 | 0.00 | 0.00 | 33 | 1008.0 |
| 20260504194238 | 71 | 293 | 1.0 | 1.0 | 0.00 | 0.00 | 0.00 | 34 | 1008.0 |
| 20260504193740 | 70 | 280 | 1.0 | 2.0 | 0.00 | 0.00 | 0.00 | 33 | 1008.0 |
| 20260504193238 | 72 | 305 | 2.0 | 3.0 | 0.00 | 0.00 | 0.00 | 35 | 1007.0 |
| 20260504192737 | 72 | 300 | 1.0 | 2.0 | 0.00 | 0.00 | 0.00 | 34 | 1007.0 |
| 20260504192237 | 72 | 356 | 0.0 | 1.0 | 0.00 | 0.00 | 0.00 | 34 | 1007.0 |
| 20260504191739 | 70 | 249 | 3.0 | 4.0 | 0.00 | 0.00 | 0.00 | 37 | 1007.0 |
| 20260504191238 | 69 | 324 | 2.0 | 3.0 | 0.00 | 0.00 | 0.00 | 35 | 1008.0 |
| 20260504190737 | 68 | 254 | 3.0 | 3.0 | 0.00 | 0.00 | 0.00 | 36 | 1008.0 |
| 20260504190238 | 70 | 339 | 1.0 | 1.0 | 0.00 | 0.00 | 0.00 | 35 | 1008.0 |
| 20260504185737 | 69 | 310 | 4.0 | 4.0 | 0.00 | 0.00 | 0.00 | 36 | 1007.0 |
| 20260504185238 | 69 | 328 | 2.0 | 3.0 | 0.00 | 0.00 | 0.00 | 35 | 1007.0 |
| 20260504184248 | 69 | 359 | 1.0 | 2.0 | 0.00 | 0.00 | 0.00 | 37 | 1007.0 |
| 20260504183737 | 70 | 265 | 3.0 | 4.0 | 0.00 | 0.00 | 0.00 | 35 | 1007.0 |
| 20260504183237 | 68 | 355 | 2.0 | 3.0 | 0.00 | 0.00 | 0.00 | 33 | 1007.0 |
| 20260504182738 | 69 | 284 | 1.0 | 1.0 | 0.00 | 0.00 | 0.00 | 36 | 1007.0 |
| 20260504182238 | 69 | 270 | 0.0 | 0.0 | 0.00 | 0.00 | 0.00 | 39 | 1007.0 |
| 20260504181737 | 68 | 293 | 1.0 | 1.0 | 0.00 | 0.00 | 0.00 | 36 | 1007.0 |
| 20260504181237 | 68 | 347 | 4.0 | 4.0 | 0.00 | 0.00 | 0.00 | 36 | 1007.0 |
| 20260504180737 | 70 | 273 | 0.0 | 1.0 | 0.00 | 0.00 | 0.00 | 34 | 1007.0 |
| 20260504180238 | 67 | 328 | 1.0 | 1.0 | 0.00 | 0.00 | 0.00 | 39 | 1007.0 |
| 20260504175737 | 67 | 277 | 1.0 | 1.0 | 0.00 | 0.00 | 0.00 | 38 | 1007.0 |
| 20260504175239 | 65 | 291 | 2.0 | 4.0 | 0.00 | 0.00 | 0.00 | 39 | 1007.0 |
| 20260504174737 | 65 | 278 | 0.0 | 1.0 | 0.00 | 0.00 | 0.00 | 39 | 1007.0 |
| 20260504174239 | 63 | 296 | 2.0 | 3.0 | 0.00 | 0.00 | 0.00 | 41 | 1007.0 |
| 20260504173737 | 63 | 270 | 1.0 | 1.0 | 0.00 | 0.00 | 0.00 | 43 | 1007.0 |
| 20260504173237 | 60 | 325 | 3.0 | 4.0 | 0.00 | 0.00 | 0.00 | 45 | 1008.0 |
| 20260504172739 | 58 | 294 | 0.0 | 1.0 | 0.00 | 0.00 | 0.00 | 47 | 1008.0 |
| 20260504172238 | 57 | 318 | 2.0 | 2.0 | 0.00 | 0.00 | 0.00 | 47 | 1008.0 |
| 20260504171737 | 57 | 286 | 2.0 | 2.0 | 0.00 | 0.00 | 0.00 | 49 | 1008.0 |
| 20260504171238 | 56 | 341 | 1.0 | 1.0 | 0.00 | 0.00 | 0.00 | 51 | 1008.0 |
| 20260504170738 | 56 | 282 | 1.0 | 2.0 | 0.00 | 0.00 | 0.00 | 50 | 1008.0 |
| 20260504170238 | 55 | 313 | 0.0 | 0.0 | 0.00 | 0.00 | 0.00 | 54 | 1008.0 |
| 20260504160239 | 49 | 270 | 1.0 | 1.0 | 0.00 | 0.00 | 0.00 | 64 | 1008.0 |
| 20260504150737 | 38 | 251 | 1.0 | 1.0 | 0.00 | 0.00 | 0.00 | 99 | 1008.0 |
| 20260504150238 | 37 | 270 | 0.0 | 0.0 | 0.00 | 0.00 | 0.00 | 99 | 1008.0 |
| 20260504141238 | 34 | 270 | 0.0 | 0.0 | 0.00 | 0.00 | 0.00 | 99 | 1008.0 |
| 20260504140738 | 35 | 270 | 0.0 | 0.0 | 0.00 | 0.00 | 0.00 | 98 | 1008.0 |
| 20260504140238 | 35 | 270 | 0.0 | 0.0 | 0.00 | 0.00 | 0.00 | 94 | 1008.0 |
| 20260504130740 | 29 | 272 | 0.0 | 0.0 | 0.00 | 0.00 | 0.00 | 99 | 1008.0 |
| 20260504130238 | 29 | 274 | 0.0 | 0.0 | 0.00 | 0.00 | 0.00 | 99 | 1008.0 |
| 20260504120238 | 29 | 270 | 0.0 | 0.0 | 0.00 | 0.00 | 0.00 | 99 | 1008.0 |
| 20260504110237 | 30 | 273 | 0.0 | 0.0 | 0.00 | 0.00 | 0.00 | 99 | 1008.0 |
| 20260504100238 | 31 | 276 | 0.0 | 0.0 | 0.00 | 0.00 | 0.00 | 99 | 1008.0 |
| 20260504081738 | 34 | 274 | 0.0 | 0.0 | 0.00 | 0.00 | 0.00 | 99 | 1008.0 |
| 20260504081238 | 34 | 275 | 0.0 | 0.0 | 0.00 | 0.00 | 0.00 | 99 | 1008.0 |
| 20260504080737 | 34 | 275 | 0.0 | 0.0 | 0.00 | 0.00 | 0.00 | 99 | 1008.0 |
| 20260504080237 | 34 | 270 | 0.0 | 0.0 | 0.00 | 0.00 | 0.00 | 99 | 1008.0 |